Wetterdaten: Montag, 18.06.2012
Datum Zeit Temperatur Luftfeuchte Regen Wind Richtung Richtung Taupunkt Windchill Windben
18.06.2012 00:00 13,4 C 88 % 0,0 l/m 0,0 km/h (0 Bft) NO 45 11,5 C 13,1 C 0,0 km/h (0 Bft)
18.06.2012 00:05 13,4 C 88 % 0,0 l/m 0,0 km/h (0 Bft) N-NO 22 11,5 C 13,2 C 0,0 km/h (0 Bft)
18.06.2012 00:10 13,3 C 88 % 0,0 l/m 0,0 km/h (0 Bft) W-SW 247 11,4 C 13,3 C 0,0 km/h (0 Bft)
18.06.2012 00:15 13,1 C 88 % 0,0 l/m 0,0 km/h (0 Bft) NO 45 11,2 C 13,1 C 0,0 km/h (0 Bft)
18.06.2012 00:20 13,1 C 89 % 0,0 l/m 0,0 km/h (0 Bft) NO 45 11,3 C 13,1 C 0,0 km/h (0 Bft)
18.06.2012 00:25 13,3 C 89 % 0,0 l/m 0,0 km/h (0 Bft) S-SO 157 11,5 C 13,1 C 0,0 km/h (0 Bft)
18.06.2012 00:30 13,0 C 89 % 0,0 l/m 0,0 km/h (0 Bft) N-NO 22 11,2 C 12,9 C 0,0 km/h (0 Bft)
18.06.2012 00:35 13,0 C 89 % 0,0 l/m 0,0 km/h (0 Bft) S 180 11,2 C 12,8 C 0,0 km/h (0 Bft)
18.06.2012 00:40 12,8 C 89 % 0,0 l/m 0,0 km/h (0 Bft) SO 135 11,0 C 12,8 C 0,0 km/h (0 Bft)
18.06.2012 00:45 12,8 C 89 % 0,0 l/m 0,0 km/h (0 Bft) N 360 11,0 C 12,6 C 0,0 km/h (0 Bft)
18.06.2012 00:50 12,7 C 89 % 0,0 l/m 0,0 km/h (0 Bft) SO 135 10,9 C 12,6 C 0,0 km/h (0 Bft)
18.06.2012 00:55 12,7 C 89 % 0,0 l/m 0,0 km/h (0 Bft) N 360 10,9 C 12,5 C 0,0 km/h (0 Bft)
18.06.2012 01:00 12,7 C 89 % 0,0 l/m 0,0 km/h (0 Bft) W-NW 292 10,9 C 12,5 C 0,0 km/h (0 Bft)
18.06.2012 01:05 12,8 C 90 % 0,0 l/m 0,0 km/h (0 Bft) W 270 11,2 C 12,5 C 0,0 km/h (0 Bft)
18.06.2012 01:10 12,8 C 91 % 0,0 l/m 0,0 km/h (0 Bft) SO 135 11,4 C 12,6 C 1,6 km/h (1 Bft)
18.06.2012 01:15 12,7 C 91 % 0,0 l/m 0,3 km/h (0 Bft) O 90 11,3 C 12,6 C 0,0 km/h (0 Bft)
18.06.2012 01:20 12,9 C 91 % 0,0 l/m 0,5 km/h (0 Bft) N-NW 337 11,5 C 12,6 C 2,6 km/h (1 Bft)
18.06.2012 01:25 13,0 C 90 % 0,0 l/m 0,0 km/h (0 Bft) NW 315 11,4 C 12,6 C 0,0 km/h (0 Bft)
18.06.2012 01:30 12,6 C 91 % 0,0 l/m 0,0 km/h (0 Bft) N 360 11,2 C 12,6 C 0,0 km/h (0 Bft)
18.06.2012 01:35 12,6 C 91 % 0,0 l/m 0,0 km/h (0 Bft) N-NO 22 11,2 C 12,4 C 0,0 km/h (0 Bft)
18.06.2012 01:40 12,6 C 91 % 0,0 l/m 0,0 km/h (0 Bft) O-SO 112 11,2 C 12,5 C 0,0 km/h (0 Bft)
18.06.2012 01:45 12,5 C 91 % 0,0 l/m 0,0 km/h (0 Bft) NW 315 11,1 C 12,3 C 0,0 km/h (0 Bft)
18.06.2012 01:50 12,6 C 91 % 0,0 l/m 0,0 km/h (0 Bft) NO 45 11,2 C 12,2 C 0,0 km/h (0 Bft)
18.06.2012 01:55 12,5 C 91 % 0,0 l/m 0,0 km/h (0 Bft) O 90 11,1 C 12,3 C 0,0 km/h (0 Bft)
18.06.2012 02:00 12,1 C 91 % 0,0 l/m 0,0 km/h (0 Bft) O-SO 112 10,7 C 12,1 C 0,0 km/h (0 Bft)
18.06.2012 02:05 12,1 C 91 % 0,0 l/m 0,0 km/h (0 Bft) S 180 10,7 C 12,0 C 0,0 km/h (0 Bft)
18.06.2012 02:10 12,1 C 91 % 0,0 l/m 0,0 km/h (0 Bft) N-NW 337 10,7 C 11,8 C 0,0 km/h (0 Bft)
18.06.2012 02:15 12,2 C 91 % 0,0 l/m 0,0 km/h (0 Bft) N-NW 337 10,8 C 11,8 C 0,0 km/h (0 Bft)
18.06.2012 02:20 11,9 C 91 % 0,0 l/m 0,0 km/h (0 Bft) N 360 10,5 C 11,8 C 0,0 km/h (0 Bft)
18.06.2012 02:25 11,8 C 91 % 0,0 l/m 0,0 km/h (0 Bft) N-NW 337 10,4 C 11,7 C 0,0 km/h (0 Bft)
18.06.2012 02:30 11,9 C 91 % 0,0 l/m 0,0 km/h (0 Bft) SO 135 10,5 C 11,7 C 0,0 km/h (0 Bft)
18.06.2012 02:35 11,8 C 91 % 0,0 l/m 0,5 km/h (0 Bft) W-SW 247 10,4 C 11,7 C 0,0 km/h (0 Bft)
18.06.2012 02:40 11,9 C 92 % 0,0 l/m 0,5 km/h (0 Bft) W-NW 292 10,6 C 11,7 C 2,9 km/h (1 Bft)
18.06.2012 02:45 11,8 C 92 % 0,0 l/m 0,0 km/h (0 Bft) NO 45 10,5 C 11,7 C 0,0 km/h (0 Bft)
18.06.2012 02:50 12,0 C 91 % 0,0 l/m 0,0 km/h (0 Bft) NO 45 10,6 C 11,5 C 0,0 km/h (0 Bft)
18.06.2012 02:55 12,0 C 92 % 0,0 l/m 0,3 km/h (0 Bft) N 360 10,7 C 11,5 C 0,0 km/h (0 Bft)
18.06.2012 03:00 11,4 C 92 % 0,0 l/m 0,3 km/h (0 Bft) N-NO 22 10,1 C 11,4 C 0,0 km/h (0 Bft)
18.06.2012 03:05 11,4 C 92 % 0,0 l/m 0,2 km/h (0 Bft) N-NW 337 10,1 C 11,2 C 0,0 km/h (0 Bft)
18.06.2012 03:10 11,2 C 91 % 0,0 l/m 0,0 km/h (0 Bft) N-NW 337 9,8 C 11,1 C 0,0 km/h (0 Bft)
18.06.2012 03:15 11,1 C 91 % 0,0 l/m 0,0 km/h (0 Bft) N 360 9,7 C 11,1 C 0,0 km/h (0 Bft)
18.06.2012 03:20 11,3 C 92 % 0,0 l/m 0,0 km/h (0 Bft) N 360 10,0 C 11,0 C 0,0 km/h (0 Bft)
18.06.2012 03:25 11,5 C 92 % 0,0 l/m 0,2 km/h (0 Bft) N-NO 22 10,2 C 10,9 C 1,8 km/h (1 Bft)
18.06.2012 03:30 11,8 C 92 % 0,0 l/m 0,8 km/h (0 Bft) NO 45 10,5 C 11,1 C 3,4 km/h (1 Bft)
18.06.2012 03:35 11,7 C 92 % 0,0 l/m 1,0 km/h (0 Bft) N-NO 22 10,4 C 11,1 C 1,6 km/h (1 Bft)
18.06.2012 03:40 12,2 C 92 % 0,0 l/m 0,3 km/h (0 Bft) N-NO 22 10,9 C 11,4 C 0,0 km/h (0 Bft)
18.06.2012 03:45 12,2 C 92 % 0,0 l/m 0,3 km/h (0 Bft) N-NO 22 10,9 C 11,4 C 0,0 km/h (0 Bft)
18.06.2012 03:50 11,9 C 92 % 0,0 l/m 0,5 km/h (0 Bft) NO 45 10,6 C 11,4 C 0,0 km/h (0 Bft)
18.06.2012 03:55 11,6 C 92 % 0,0 l/m 0,3 km/h (0 Bft) N-NO 22 10,3 C 11,4 C 0,0 km/h (0 Bft)
18.06.2012 04:00 11,2 C 92 % 0,0 l/m 0,2 km/h (0 Bft) S-SW 202 9,9 C 11,1 C 0,0 km/h (0 Bft)
18.06.2012 04:05 11,0 C 92 % 0,0 l/m 0,0 km/h (0 Bft) W 270 9,8 C 10,9 C 0,0 km/h (0 Bft)
18.06.2012 04:10 11,0 C 91 % 0,0 l/m 0,0 km/h (0 Bft) N 360 9,6 C 10,6 C 0,0 km/h (0 Bft)
18.06.2012 04:15 11,4 C 92 % 0,0 l/m 0,0 km/h (0 Bft) N 360 10,1 C 10,7 C 0,0 km/h (0 Bft)
18.06.2012 04:20 11,0 C 92 % 0,0 l/m 0,2 km/h (0 Bft) SO 135 9,8 C 10,7 C 2,1 km/h (1 Bft)
18.06.2012 04:25 10,8 C 92 % 0,0 l/m 0,5 km/h (0 Bft) N 360 9,6 C 10,6 C 1,9 km/h (1 Bft)
18.06.2012 04:30 11,3 C 92 % 0,0 l/m 1,4 km/h (1 Bft) S-SW 202 10,0 C 10,8 C 5,5 km/h (1 Bft)
18.06.2012 04:35 10,8 C 92 % 0,0 l/m 1,1 km/h (1 Bft) N 360 9,6 C 10,7 C 0,0 km/h (0 Bft)
18.06.2012 04:40 10,9 C 92 % 0,0 l/m 0,0 km/h (0 Bft) N-NO 22 9,7 C 10,5 C 0,0 km/h (0 Bft)
18.06.2012 04:45 11,0 C 92 % 0,0 l/m 0,0 km/h (0 Bft) NW 315 9,8 C 10,4 C 1,8 km/h (1 Bft)
18.06.2012 04:50 10,6 C 92 % 0,0 l/m 0,0 km/h (0 Bft) S 180 9,4 C 10,5 C 0,0 km/h (0 Bft)
18.06.2012 04:55 10,8 C 92 % 0,0 l/m 0,2 km/h (0 Bft) N-NO 22 9,6 C 10,4 C 0,0 km/h (0 Bft)
18.06.2012 05:00 11,2 C 92 % 0,0 l/m 0,2 km/h (0 Bft) NO 45 9,9 C 10,6 C 0,0 km/h (0 Bft)
18.06.2012 05:05 11,1 C 92 % 0,0 l/m 0,0 km/h (0 Bft) N-NW 337 9,8 C 10,6 C 0,0 km/h (0 Bft)
18.06.2012 05:10 10,9 C 92 % 0,0 l/m 0,0 km/h (0 Bft) W 270 9,7 C 10,7 C 0,0 km/h (0 Bft)
18.06.2012 05:15 10,5 C 92 % 0,0 l/m 0,0 km/h (0 Bft) W-NW 292 9,3 C 10,6 C 0,0 km/h (0 Bft)
18.06.2012 05:20 10,6 C 92 % 0,0 l/m 0,0 km/h (0 Bft) W-NW 292 9,4 C 10,4 C 0,0 km/h (0 Bft)
18.06.2012 05:25 10,7 C 92 % 0,0 l/m 0,0 km/h (0 Bft) N 360 9,5 C 10,3 C 0,0 km/h (0 Bft)
18.06.2012 05:30 10,7 C 93 % 0,0 l/m 0,0 km/h (0 Bft) N-NO 22 9,6 C 10,4 C 0,0 km/h (0 Bft)
18.06.2012 05:35 10,7 C 92 % 0,0 l/m 0,0 km/h (0 Bft) N-NW 337 9,5 C 10,4 C 1,6 km/h (1 Bft)
18.06.2012 05:40 10,8 C 93 % 0,0 l/m 0,2 km/h (0 Bft) N 360 9,7 C 10,5 C 0,0 km/h (0 Bft)
18.06.2012 05:45 10,8 C 92 % 0,0 l/m 0,3 km/h (0 Bft) SO 135 9,6 C 10,7 C 2,4 km/h (1 Bft)
18.06.2012 05:50 10,9 C 92 % 0,0 l/m 0,3 km/h (0 Bft) W-SW 247 9,7 C 11,1 C 0,0 km/h (0 Bft)
18.06.2012 05:55 11,2 C 92 % 0,0 l/m 0,2 km/h (0 Bft) S 180 9,9 C 11,1 C 0,0 km/h (0 Bft)
18.06.2012 06:00 11,4 C 92 % 0,0 l/m 0,2 km/h (0 Bft) W-NW 292 10,1 C 11,8 C 0,0 km/h (0 Bft)
18.06.2012 06:05 11,5 C 92 % 0,0 l/m 0,2 km/h (0 Bft) N-NO 22 10,2 C 12,7 C 0,0 km/h (0 Bft)
18.06.2012 06:10 12,9 C 92 % 0,0 l/m 0,0 km/h (0 Bft) NO 45 11,6 C 13,9 C 0,0 km/h (0 Bft)
18.06.2012 06:15 13,1 C 90 % 0,0 l/m 0,3 km/h (0 Bft) NO 45 11,5 C 14,3 C 0,0 km/h (0 Bft)
18.06.2012 06:20 13,3 C 89 % 0,0 l/m 0,6 km/h (0 Bft) N-NO 22 12,1 C 14,8 C 0,0 km/h (0 Bft)
18.06.2012 06:25 13,4 C 88 % 0,0 l/m 0,5 km/h (0 Bft) N 360 12,5 C 15,4 C 1,8 km/h (1 Bft)
18.06.2012 06:30 14,5 C 85 % 0,0 l/m 0,2 km/h (0 Bft) N-NW 337 13,9 C 16,6 C 0,0 km/h (0 Bft)
18.06.2012 06:35 15,5 C 81 % 0,0 l/m 0,3 km/h (0 Bft) N 360 13,8 C 17,3 C 0,0 km/h (0 Bft)
18.06.2012 06:40 17,2 C 79 % 0,0 l/m 0,2 km/h (0 Bft) N-NW 337 14,8 C 18,8 C 0,0 km/h (0 Bft)
18.06.2012 06:45 18,1 C 79 % 0,0 l/m 0,0 km/h (0 Bft) N 360 15,0 C 19,6 C 0,0 km/h (0 Bft)
18.06.2012 06:50 19,0 C 73 % 0,0 l/m 0,0 km/h (0 Bft) N 360 14,8 C 20,7 C 0,0 km/h (0 Bft)
18.06.2012 06:55 19,9 C 74 % 0,0 l/m 0,3 km/h (0 Bft) N 360 16,4 C 21,1 C 1,6 km/h (1 Bft)
18.06.2012 07:00 21,1 C 67 % 0,0 l/m 0,3 km/h (0 Bft) NW 315 15,8 C 22,4 C 0,0 km/h (0 Bft)
18.06.2012 07:05 22,0 C 67 % 0,0 l/m 0,2 km/h (0 Bft) O-NO 67 16,1 C 23,2 C 0,0 km/h (0 Bft)
18.06.2012 07:10 22,8 C 62 % 0,0 l/m 0,3 km/h (0 Bft) S-SO 157 15,8 C 24,2 C 2,9 km/h (1 Bft)
18.06.2012 07:15 23,3 C 62 % 0,0 l/m 0,6 km/h (0 Bft) S-SW 202 15,6 C 24,1 C 0,0 km/h (0 Bft)
18.06.2012 07:20 23,1 C 59 % 0,0 l/m 0,6 km/h (0 Bft) S 180 14,6 C 24,8 C 0,0 km/h (0 Bft)
18.06.2012 07:25 23,3 C 60 % 0,0 l/m 0,0 km/h (0 Bft) S-SW 202 15,1 C 25,3 C 0,0 km/h (0 Bft)
18.06.2012 07:30 24,0 C 58 % 0,0 l/m 0,0 km/h (0 Bft) SO 135 15,2 C 25,6 C 0,0 km/h (0 Bft)
18.06.2012 07:35 23,6 C 57 % 0,0 l/m 0,0 km/h (0 Bft) SO 135 14,6 C 26,0 C 0,0 km/h (0 Bft)
18.06.2012 07:40 24,4 C 57 % 0,0 l/m 0,2 km/h (0 Bft) O-SO 112 15,3 C 26,5 C 1,9 km/h (1 Bft)
18.06.2012 07:45 24,2 C 56 % 0,0 l/m 0,2 km/h (0 Bft) N 360 14,9 C 26,7 C 0,0 km/h (0 Bft)
18.06.2012 07:50 24,9 C 55 % 0,0 l/m 0,2 km/h (0 Bft) O-SO 112 15,2 C 27,5 C 0,0 km/h (0 Bft)
18.06.2012 07:55 25,3 C 55 % 0,0 l/m 0,0 km/h (0 Bft) N 360 15,6 C 28,2 C 0,0 km/h (0 Bft)
18.06.2012 08:00 25,9 C 55 % 0,0 l/m 0,0 km/h (0 Bft) N 360 16,2 C 28,7 C 0,0 km/h (0 Bft)
18.06.2012 08:05 25,9 C 56 % 0,0 l/m 0,0 km/h (0 Bft) N 360 16,4 C 28,9 C 0,0 km/h (0 Bft)
18.06.2012 08:10 26,8 C 51 % 0,0 l/m 0,0 km/h (0 Bft) N-NW 337 15,8 C 29,0 C 0,0 km/h (0 Bft)
18.06.2012 08:15 27,0 C 51 % 0,0 l/m 0,0 km/h (0 Bft) N-NW 337 16,0 C 29,6 C 0,0 km/h (0 Bft)
18.06.2012 08:20 27,4 C 50 % 0,0 l/m 0,2 km/h (0 Bft) N-NO 22 16,0 C 30,1 C 0,0 km/h (0 Bft)
18.06.2012 08:25 27,4 C 50 % 0,0 l/m 0,2 km/h (0 Bft) O 90 16,0 C 30,5 C 0,0 km/h (0 Bft)
18.06.2012 08:30 27,4 C 49 % 0,0 l/m 0,2 km/h (0 Bft) N-NO 22 15,7 C 30,9 C 0,0 km/h (0 Bft)
18.06.2012 08:35 26,8 C 51 % 0,0 l/m 0,2 km/h (0 Bft) O 90 16,4 C 31,3 C 0,0 km/h (0 Bft)
18.06.2012 08:40 26,1 C 49 % 0,0 l/m 0,0 km/h (0 Bft) N-NO 22 16,3 C 31,6 C 0,0 km/h (0 Bft)
18.06.2012 08:45 25,7 C 50 % 0,0 l/m 0,0 km/h (0 Bft) O 90 16,5 C 31,6 C 0,0 km/h (0 Bft)
18.06.2012 08:50 26,1 C 50 % 0,0 l/m 0,3 km/h (0 Bft) S 180 17,9 C 31,9 C 0,0 km/h (0 Bft)
18.06.2012 08:55 26,3 C 45 % 0,0 l/m 0,8 km/h (0 Bft) O-SO 112 15,9 C 32,0 C 0,0 km/h (0 Bft)
18.06.2012 09:00 26,3 C 47 % 0,0 l/m 0,5 km/h (0 Bft) N-NO 22 16,7 C 32,7 C 0,0 km/h (0 Bft)
18.06.2012 09:05 26,3 C 46 % 0,0 l/m 0,2 km/h (0 Bft) SO 135 16,5 C 33,1 C 0,0 km/h (0 Bft)
18.06.2012 09:10 26,5 C 50 % 0,0 l/m 0,5 km/h (0 Bft) S-SO 157 16,4 C 33,2 C 4,2 km/h (1 Bft)
18.06.2012 09:15 26,5 C 50 % 0,0 l/m 0,6 km/h (0 Bft) O 90 16,2 C 31,6 C 0,0 km/h (0 Bft)
18.06.2012 09:20 26,3 C 46 % 0,0 l/m 0,3 km/h (0 Bft) N 360 15,4 C 31,8 C 0,0 km/h (0 Bft)
18.06.2012 09:25 26,1 C 48 % 0,0 l/m 0,3 km/h (0 Bft) N 360 15,4 C 31,4 C 3,1 km/h (1 Bft)
18.06.2012 09:30 26,4 C 47 % 0,0 l/m 0,6 km/h (0 Bft) W-NW 292 16,8 C 32,1 C 0,0 km/h (0 Bft)
18.06.2012 09:35 27,1 C 46 % 0,0 l/m 0,5 km/h (0 Bft) O 90 17,5 C 32,7 C 0,0 km/h (0 Bft)
18.06.2012 09:40 27,8 C 43 % 0,0 l/m 0,2 km/h (0 Bft) W-SW 247 16,7 C 33,7 C 0,0 km/h (0 Bft)
18.06.2012 09:45 28,3 C 42 % 0,0 l/m 0,6 km/h (0 Bft) S 180 16,7 C 33,9 C 2,6 km/h (1 Bft)
18.06.2012 09:50 28,9 C 39 % 0,0 l/m 1,9 km/h (1 Bft) S-SO 157 15,8 C 33,6 C 2,6 km/h (1 Bft)
18.06.2012 09:55 28,8 C 40 % 0,0 l/m 1,8 km/h (1 Bft) S-SW 202 15,5 C 33,6 C 0,0 km/h (0 Bft)
18.06.2012 10:00 28,9 C 40 % 0,0 l/m 0,6 km/h (0 Bft) N 360 15,1 C 34,0 C 0,0 km/h (0 Bft)
18.06.2012 10:05 29,0 C 43 % 0,0 l/m 0,2 km/h (0 Bft) O 90 17,0 C 34,5 C 0,0 km/h (0 Bft)
18.06.2012 10:10 29,4 C 38 % 0,0 l/m 0,6 km/h (0 Bft) S-SO 157 15,3 C 34,6 C 0,0 km/h (0 Bft)
18.06.2012 10:15 29,9 C 37 % 0,0 l/m 1,4 km/h (1 Bft) S 180 15,5 C 34,5 C 2,9 km/h (1 Bft)
18.06.2012 10:20 30,1 C 35 % 0,0 l/m 1,4 km/h (1 Bft) N-NW 337 13,5 C 34,3 C 1,6 km/h (1 Bft)
18.06.2012 10:25 30,4 C 37 % 0,0 l/m 1,0 km/h (0 Bft) W 270 14,4 C 34,3 C 4,5 km/h (1 Bft)
18.06.2012 10:30 30,4 C 36 % 0,0 l/m 1,8 km/h (1 Bft) W 270 14,6 C 33,9 C 2,6 km/h (1 Bft)
18.06.2012 10:35 30,6 C 36 % 0,0 l/m 1,9 km/h (1 Bft) W-NW 292 14,2 C 34,2 C 2,4 km/h (1 Bft)
18.06.2012 10:40 30,5 C 36 % 0,0 l/m 1,4 km/h (1 Bft) O 90 13,7 C 33,9 C 0,0 km/h (0 Bft)
18.06.2012 10:45 30,4 C 35 % 0,0 l/m 2,3 km/h (1 Bft) W-SW 247 13,2 C 33,7 C 3,2 km/h (1 Bft)
18.06.2012 10:50 30,7 C 38 % 0,0 l/m 2,1 km/h (1 Bft) W-NW 292 14,7 C 33,5 C 2,7 km/h (1 Bft)
18.06.2012 10:55 30,6 C 36 % 0,0 l/m 2,3 km/h (1 Bft) NO 45 13,8 C 33,7 C 4,8 km/h (1 Bft)
18.06.2012 11:00 31,1 C 36 % 0,0 l/m 2,9 km/h (1 Bft) SO 135 14,6 C 33,3 C 6,1 km/h (2 Bft)
18.06.2012 11:05 31,4 C 34 % 0,0 l/m 3,7 km/h (1 Bft) S 180 13,6 C 33,3 C 3,2 km/h (1 Bft)
18.06.2012 11:10 31,6 C 32 % 0,0 l/m 4,0 km/h (1 Bft) SO 135 12,9 C 33,3 C 7,2 km/h (2 Bft)
18.06.2012 11:15 31,8 C 30 % 0,0 l/m 4,2 km/h (1 Bft) S 180 12,1 C 33,2 C 6,0 km/h (2 Bft)
18.06.2012 11:20 31,8 C 29 % 0,0 l/m 5,8 km/h (2 Bft) S-SO 157 11,5 C 32,8 C 12,1 km/h (2 Bft)
18.06.2012 11:25 32,0 C 31 % 0,0 l/m 6,0 km/h (2 Bft) S 180 12,7 C 32,7 C 4,2 km/h (1 Bft)
18.06.2012 11:30 31,9 C 29 % 0,0 l/m 5,8 km/h (2 Bft) SO 135 11,6 C 32,7 C 9,7 km/h (2 Bft)
18.06.2012 11:35 31,7 C 26 % 0,0 l/m 6,4 km/h (2 Bft) O 90 9,8 C 32,6 C 12,9 km/h (3 Bft)
18.06.2012 11:40 32,0 C 26 % 0,0 l/m 7,6 km/h (2 Bft) O-SO 112 10,1 C 32,4 C 13,8 km/h (3 Bft)
18.06.2012 11:45 31,9 C 25 % 0,0 l/m 7,6 km/h (2 Bft) SO 135 9,4 C 32,3 C 7,4 km/h (2 Bft)
18.06.2012 11:50 31,9 C 23 % 0,0 l/m 7,4 km/h (2 Bft) SO 135 8,2 C 32,3 C 15,8 km/h (3 Bft)
18.06.2012 11:55 32,1 C 23 % 0,0 l/m 7,2 km/h (2 Bft) O 90 8,3 C 32,2 C 8,4 km/h (2 Bft)
18.06.2012 12:00 32,5 C 22 % 0,0 l/m 7,2 km/h (2 Bft) SO 135 8,0 C 32,4 C 16,7 km/h (3 Bft)
18.06.2012 12:05 32,7 C 24 % 0,0 l/m 6,3 km/h (2 Bft) S 180 9,5 C 32,6 C 8,5 km/h (2 Bft)
18.06.2012 12:10 32,9 C 24 % 0,0 l/m 5,5 km/h (1 Bft) S 180 9,6 C 32,7 C 3,7 km/h (1 Bft)
18.06.2012 12:15 32,9 C 24 % 0,0 l/m 5,0 km/h (1 Bft) O-SO 112 9,6 C 33,0 C 3,7 km/h (1 Bft)
18.06.2012 12:20 33,3 C 21 % 0,0 l/m 4,2 km/h (1 Bft) S-SO 157 8,0 C 33,6 C 7,2 km/h (2 Bft)
18.06.2012 12:25 33,3 C 20 % 0,0 l/m 4,5 km/h (1 Bft) SO 135 7,3 C 33,6 C 7,7 km/h (2 Bft)
18.06.2012 12:30 33,0 C 20 % 0,0 l/m 5,6 km/h (1 Bft) NO 45 7,0 C 33,4 C 5,8 km/h (2 Bft)
18.06.2012 12:35 33,1 C 20 % 0,0 l/m 5,5 km/h (1 Bft) S-SO 157 7,1 C 33,6 C 5,1 km/h (1 Bft)
18.06.2012 12:40 32,8 C 22 % 0,0 l/m 5,5 km/h (1 Bft) S 180 8,3 C 33,6 C 10,3 km/h (2 Bft)
18.06.2012 12:45 32,9 C 23 % 0,0 l/m 6,9 km/h (2 Bft) SO 135 9,0 C 33,3 C 5,0 km/h (1 Bft)
18.06.2012 12:50 32,4 C 21 % 0,0 l/m 7,9 km/h (2 Bft) S 180 7,2 C 32,9 C 17,1 km/h (3 Bft)
18.06.2012 12:55 32,1 C 23 % 0,0 l/m 8,0 km/h (2 Bft) S-SW 202 8,3 C 32,4 C 9,3 km/h (2 Bft)
18.06.2012 13:00 32,5 C 22 % 0,0 l/m 7,7 km/h (2 Bft) N-NW 337 8,0 C 32,6 C 10,5 km/h (2 Bft)
18.06.2012 13:05 32,4 C 22 % 0,0 l/m 7,6 km/h (2 Bft) SO 135 7,9 C 32,6 C 10,0 km/h (2 Bft)
18.06.2012 13:10 32,5 C 21 % 0,0 l/m 7,9 km/h (2 Bft) O-SO 112 7,3 C 32,7 C 13,8 km/h (3 Bft)
18.06.2012 13:15 32,3 C 21 % 0,0 l/m 6,6 km/h (2 Bft) S 180 7,2 C 33,0 C 13,5 km/h (3 Bft)
18.06.2012 13:20 32,2 C 21 % 0,0 l/m 7,9 km/h (2 Bft) SO 135 7,1 C 32,7 C 12,4 km/h (3 Bft)
18.06.2012 13:25 31,8 C 21 % 0,0 l/m 8,9 km/h (2 Bft) S 180 6,8 C 32,4 C 8,0 km/h (2 Bft)
18.06.2012 13:30 32,1 C 22 % 0,0 l/m 8,2 km/h (2 Bft) S-SO 157 7,7 C 32,4 C 14,2 km/h (3 Bft)
18.06.2012 13:35 31,8 C 22 % 0,0 l/m 7,9 km/h (2 Bft) S-SO 157 7,4 C 32,2 C 10,0 km/h (2 Bft)
18.06.2012 13:40 32,5 C 22 % 0,0 l/m 7,6 km/h (2 Bft) SO 135 8,0 C 32,2 C 2,7 km/h (1 Bft)
18.06.2012 13:45 32,8 C 22 % 0,0 l/m 6,8 km/h (2 Bft) S-SW 202 8,3 C 32,7 C 12,9 km/h (3 Bft)
18.06.2012 13:50 30,4 C 25 % 0,0 l/m 7,7 km/h (2 Bft) W-SW 247 8,1 C 31,5 C 18,2 km/h (3 Bft)
18.06.2012 13:55 30,2 C 26 % 0,0 l/m 8,0 km/h (2 Bft) SO 135 8,5 C 30,8 C 3,5 km/h (1 Bft)
18.06.2012 14:00 31,3 C 25 % 0,0 l/m 7,7 km/h (2 Bft) W-SW 247 8,9 C 31,3 C 20,3 km/h (4 Bft)
18.06.2012 14:05 30,9 C 24 % 0,0 l/m 8,4 km/h (2 Bft) S 180 8,0 C 31,4 C 10,9 km/h (2 Bft)
18.06.2012 14:10 32,1 C 24 % 0,0 l/m 8,9 km/h (2 Bft) SO 135 9,0 C 32,0 C 16,4 km/h (3 Bft)
18.06.2012 14:15 32,2 C 25 % 0,0 l/m 8,5 km/h (2 Bft) SO 135 9,6 C 32,4 C 8,7 km/h (2 Bft)
18.06.2012 14:20 32,0 C 25 % 0,0 l/m 9,2 km/h (2 Bft) W-SW 247 9,5 C 32,6 C 7,1 km/h (2 Bft)
18.06.2012 14:25 31,8 C 26 % 0,0 l/m 8,2 km/h (2 Bft) SO 135 9,9 C 32,7 C 12,9 km/h (3 Bft)
18.06.2012 14:30 32,4 C 26 % 0,0 l/m 7,4 km/h (2 Bft) SO 135 10,4 C 32,9 C 15,0 km/h (3 Bft)
18.06.2012 14:35 31,8 C 29 % 0,0 l/m 7,9 km/h (2 Bft) S 180 11,5 C 32,7 C 8,7 km/h (2 Bft)
18.06.2012 14:40 31,7 C 29 % 0,0 l/m 9,2 km/h (2 Bft) SO 135 11,5 C 32,2 C 10,8 km/h (2 Bft)
18.06.2012 14:45 31,6 C 27 % 0,0 l/m 8,4 km/h (2 Bft) SO 135 10,3 C 32,0 C 8,4 km/h (2 Bft)
18.06.2012 14:50 31,3 C 27 % 0,0 l/m 8,0 km/h (2 Bft) S-SW 202 10,0 C 32,2 C 17,2 km/h (3 Bft)
18.06.2012 14:55 31,1 C 27 % 0,0 l/m 8,2 km/h (2 Bft) S-SO 157 9,9 C 32,0 C 7,7 km/h (2 Bft)
18.06.2012 15:00 31,7 C 27 % 0,0 l/m 7,4 km/h (2 Bft) S 180 10,4 C 32,3 C 14,5 km/h (3 Bft)
18.06.2012 15:05 31,5 C 29 % 0,0 l/m 6,8 km/h (2 Bft) S-SO 157 11,3 C 32,4 C 12,6 km/h (3 Bft)
18.06.2012 15:10 32,0 C 28 % 0,0 l/m 8,5 km/h (2 Bft) S-SO 157 11,2 C 32,7 C 13,4 km/h (3 Bft)
18.06.2012 15:15 31,2 C 29 % 0,0 l/m 8,0 km/h (2 Bft) S-SO 157 11,0 C 32,7 C 9,3 km/h (2 Bft)
18.06.2012 15:20 31,0 C 32 % 0,0 l/m 6,9 km/h (2 Bft) O-SO 112 12,3 C 31,7 C 5,6 km/h (1 Bft)
18.06.2012 15:25 30,9 C 33 % 0,0 l/m 6,0 km/h (2 Bft) SO 135 12,7 C 31,8 C 7,1 km/h (2 Bft)
18.06.2012 15:30 31,4 C 31 % 0,0 l/m 5,6 km/h (1 Bft) SO 135 12,2 C 31,7 C 8,4 km/h (2 Bft)
18.06.2012 15:35 31,3 C 29 % 0,0 l/m 6,8 km/h (2 Bft) S 180 11,1 C 32,3 C 9,5 km/h (2 Bft)
18.06.2012 15:40 31,7 C 29 % 0,0 l/m 7,4 km/h (2 Bft) W-SW 247 11,5 C 32,5 C 8,5 km/h (2 Bft)
18.06.2012 15:45 31,7 C 29 % 0,0 l/m 6,9 km/h (2 Bft) S 180 11,5 C 32,7 C 8,2 km/h (2 Bft)
18.06.2012 15:50 31,2 C 25 % 0,0 l/m 5,3 km/h (1 Bft) S-SW 202 8,8 C 33,1 C 3,9 km/h (1 Bft)
18.06.2012 15:55 31,3 C 27 % 0,0 l/m 5,8 km/h (2 Bft) SO 135 10,0 C 33,1 C 5,3 km/h (1 Bft)
18.06.2012 16:00 31,8 C 26 % 0,0 l/m 5,8 km/h (2 Bft) S 180 9,9 C 33,0 C 6,3 km/h (2 Bft)
18.06.2012 16:05 31,8 C 25 % 0,0 l/m 5,1 km/h (1 Bft) W-SW 247 9,3 C 33,0 C 3,5 km/h (1 Bft)
18.06.2012 16:10 31,7 C 27 % 0,0 l/m 5,1 km/h (1 Bft) W-SW 247 10,4 C 33,3 C 5,5 km/h (1 Bft)
18.06.2012 16:15 31,3 C 28 % 0,0 l/m 5,6 km/h (1 Bft) S 180 10,6 C 33,3 C 9,2 km/h (2 Bft)
18.06.2012 16:20 31,6 C 28 % 0,0 l/m 4,8 km/h (1 Bft) O-SO 112 10,8 C 33,5 C 6,6 km/h (2 Bft)
18.06.2012 16:25 31,4 C 27 % 0,0 l/m 4,2 km/h (1 Bft) S 180 10,1 C 33,6 C 3,9 km/h (1 Bft)
18.06.2012 16:30 31,5 C 28 % 0,0 l/m 4,5 km/h (1 Bft) S-SO 157 10,8 C 33,8 C 9,5 km/h (2 Bft)
18.06.2012 16:35 30,7 C 27 % 0,0 l/m 4,5 km/h (1 Bft) SO 135 9,5 C 33,6 C 9,0 km/h (2 Bft)
18.06.2012 16:40 30,5 C 27 % 0,0 l/m 5,8 km/h (2 Bft) SO 135 9,4 C 33,1 C 5,3 km/h (1 Bft)
18.06.2012 16:45 30,6 C 27 % 0,0 l/m 5,8 km/h (2 Bft) O-SO 112 9,4 C 33,2 C 8,4 km/h (2 Bft)
18.06.2012 16:50 30,4 C 26 % 0,0 l/m 4,7 km/h (1 Bft) S-SO 157 8,7 C 33,6 C 11,3 km/h (2 Bft)
18.06.2012 16:55 30,0 C 26 % 0,0 l/m 5,3 km/h (1 Bft) O-SO 112 8,4 C 33,5 C 10,1 km/h (2 Bft)
18.06.2012 17:00 29,5 C 28 % 0,0 l/m 5,3 km/h (1 Bft) S-SO 157 9,1 C 33,3 C 3,2 km/h (1 Bft)
18.06.2012 17:05 29,5 C 30 % 0,0 l/m 4,5 km/h (1 Bft) S-SO 157 10,1 C 33,5 C 5,6 km/h (1 Bft)
18.06.2012 17:10 29,1 C 30 % 0,0 l/m 4,8 km/h (1 Bft) SO 135 9,7 C 33,2 C 3,7 km/h (1 Bft)
18.06.2012 17:15 29,0 C 30 % 0,0 l/m 4,8 km/h (1 Bft) S-SO 157 9,6 C 33,4 C 11,7 km/h (2 Bft)
18.06.2012 17:20 29,0 C 31 % 0,0 l/m 4,0 km/h (1 Bft) O-SO 112 10,1 C 33,5 C 4,8 km/h (1 Bft)
18.06.2012 17:25 29,0 C 32 % 0,0 l/m 4,3 km/h (1 Bft) S 180 10,6 C 33,6 C 6,4 km/h (2 Bft)
18.06.2012 17:30 28,7 C 32 % 0,0 l/m 4,2 km/h (1 Bft) S 180 10,4 C 33,6 C 6,6 km/h (2 Bft)
18.06.2012 17:35 28,5 C 31 % 0,0 l/m 4,3 km/h (1 Bft) S-SW 202 9,7 C 33,5 C 2,9 km/h (1 Bft)
18.06.2012 17:40 28,5 C 33 % 0,0 l/m 3,7 km/h (1 Bft) NO 45 10,6 C 33,8 C 4,7 km/h (1 Bft)
18.06.2012 17:45 28,4 C 32 % 0,0 l/m 3,2 km/h (1 Bft) S-SW 202 10,1 C 33,8 C 5,5 km/h (1 Bft)
18.06.2012 17:50 28,4 C 32 % 0,0 l/m 3,1 km/h (1 Bft) S-SW 202 10,1 C 34,0 C 5,1 km/h (1 Bft)
18.06.2012 17:55 28,5 C 32 % 0,0 l/m 3,2 km/h (1 Bft) S 180 10,2 C 33,8 C 2,9 km/h (1 Bft)
18.06.2012 18:00 28,4 C 30 % 0,0 l/m 3,2 km/h (1 Bft) W-SW 247 9,1 C 33,8 C 1,9 km/h (1 Bft)
18.06.2012 18:05 28,3 C 31 % 0,0 l/m 1,9 km/h (1 Bft) N 360 9,5 C 34,1 C 0,0 km/h (0 Bft)
18.06.2012 18:10 28,5 C 32 % 0,0 l/m 2,1 km/h (1 Bft) S 180 10,2 C 34,1 C 2,7 km/h (1 Bft)
18.06.2012 18:15 28,6 C 33 % 0,0 l/m 3,1 km/h (1 Bft) S 180 10,7 C 34,1 C 8,9 km/h (2 Bft)
18.06.2012 18:20 28,7 C 33 % 0,0 l/m 3,2 km/h (1 Bft) S-SW 202 10,8 C 33,7 C 5,1 km/h (1 Bft)
18.06.2012 18:25 28,7 C 32 % 0,0 l/m 3,2 km/h (1 Bft) O-SO 112 10,4 C 33,7 C 0,0 km/h (0 Bft)
18.06.2012 18:30 28,5 C 33 % 0,0 l/m 1,8 km/h (1 Bft) S-SW 202 10,6 C 34,1 C 4,2 km/h (1 Bft)
18.06.2012 18:35 28,6 C 34 % 0,0 l/m 1,8 km/h (1 Bft) S 180 11,2 C 34,2 C 2,7 km/h (1 Bft)
18.06.2012 18:40 28,8 C 33 % 0,0 l/m 2,4 km/h (1 Bft) SO 135 10,9 C 34,1 C 3,2 km/h (1 Bft)
18.06.2012 18:45 28,8 C 33 % 0,0 l/m 1,9 km/h (1 Bft) S-SW 202 10,9 C 33,9 C 1,9 km/h (1 Bft)
18.06.2012 18:50 28,4 C 34 % 0,0 l/m 1,9 km/h (1 Bft) SO 135 11,0 C 33,8 C 4,7 km/h (1 Bft)
18.06.2012 18:55 28,3 C 34 % 0,0 l/m 2,1 km/h (1 Bft) SO 135 10,9 C 33,7 C 1,8 km/h (1 Bft)
18.06.2012 19:00 28,2 C 35 % 0,0 l/m 2,3 km/h (1 Bft) O-SO 112 11,3 C 33,5 C 1,6 km/h (1 Bft)
18.06.2012 19:05 27,9 C 37 % 0,0 l/m 1,9 km/h (1 Bft) W-SW 247 11,8 C 33,5 C 4,8 km/h (1 Bft)
18.06.2012 19:10 27,3 C 38 % 0,0 l/m 1,6 km/h (1 Bft) W-NW 292 11,7 C 33,1 C 2,6 km/h (1 Bft)
18.06.2012 19:15 27,2 C 39 % 0,0 l/m 2,6 km/h (1 Bft) W-NW 292 12,0 C 32,7 C 6,4 km/h (2 Bft)
18.06.2012 19:20 27,2 C 40 % 0,0 l/m 3,4 km/h (1 Bft) S 180 12,4 C 31,9 C 0,0 km/h (0 Bft)
18.06.2012 19:25 27,2 C 40 % 0,0 l/m 3,2 km/h (1 Bft) W-SW 247 12,4 C 31,8 C 4,3 km/h (1 Bft)
18.06.2012 19:30 27,1 C 39 % 0,0 l/m 2,3 km/h (1 Bft) NO 45 11,9 C 31,4 C 2,1 km/h (1 Bft)
18.06.2012 19:35 27,0 C 39 % 0,0 l/m 2,6 km/h (1 Bft) W-NW 292 11,8 C 31,4 C 5,1 km/h (1 Bft)
18.06.2012 19:40 26,7 C 40 % 0,0 l/m 2,3 km/h (1 Bft) NW 315 12,0 C 31,0 C 0,0 km/h (0 Bft)
18.06.2012 19:45 26,7 C 41 % 0,0 l/m 1,8 km/h (1 Bft) S 180 12,3 C 31,2 C 0,0 km/h (0 Bft)
18.06.2012 19:50 26,6 C 40 % 0,0 l/m 1,1 km/h (1 Bft) SW 225 11,9 C 31,2 C 2,3 km/h (1 Bft)
18.06.2012 19:55 26,4 C 40 % 0,0 l/m 1,4 km/h (1 Bft) NW 315 11,7 C 31,0 C 0,0 km/h (0 Bft)
18.06.2012 20:00 26,2 C 41 % 0,0 l/m 1,1 km/h (1 Bft) NW 315 11,9 C 30,7 C 0,0 km/h (0 Bft)
18.06.2012 20:05 26,2 C 41 % 0,0 l/m 0,8 km/h (0 Bft) N-NW 337 11,9 C 30,5 C 2,7 km/h (1 Bft)
18.06.2012 20:10 25,4 C 44 % 0,0 l/m 0,6 km/h (0 Bft) N 360 12,2 C 29,6 C 1,8 km/h (1 Bft)
18.06.2012 20:15 24,6 C 47 % 0,0 l/m 0,5 km/h (0 Bft) NO 45 12,5 C 28,6 C 0,0 km/h (0 Bft)
18.06.2012 20:20 24,3 C 47 % 0,0 l/m 0,2 km/h (0 Bft) W-SW 247 12,3 C 27,5 C 0,0 km/h (0 Bft)
18.06.2012 20:25 24,3 C 47 % 0,0 l/m 0,2 km/h (0 Bft) N-NO 22 12,3 C 27,1 C 1,6 km/h (1 Bft)
18.06.2012 20:30 23,8 C 50 % 0,0 l/m 0,3 km/h (0 Bft) N 360 12,7 C 26,7 C 0,0 km/h (0 Bft)
18.06.2012 20:35 23,5 C 51 % 0,0 l/m 0,3 km/h (0 Bft) N-NO 22 12,8 C 26,5 C 0,0 km/h (0 Bft)
18.06.2012 20:40 23,2 C 52 % 0,0 l/m 0,0 km/h (0 Bft) N-NO 22 12,8 C 25,5 C 0,0 km/h (0 Bft)
18.06.2012 20:45 23,0 C 53 % 0,0 l/m 0,2 km/h (0 Bft) N 360 12,9 C 25,0 C 1,6 km/h (1 Bft)
18.06.2012 20:50 22,4 C 56 % 0,0 l/m 0,2 km/h (0 Bft) N-NO 22 13,2 C 24,4 C 0,0 km/h (0 Bft)
18.06.2012 20:55 22,2 C 57 % 0,0 l/m 0,3 km/h (0 Bft) N 360 13,3 C 24,0 C 1,8 km/h (1 Bft)
18.06.2012 21:00 22,2 C 57 % 0,0 l/m 0,6 km/h (0 Bft) N 360 13,3 C 23,1 C 0,0 km/h (0 Bft)
18.06.2012 21:05 21,8 C 58 % 0,0 l/m 0,5 km/h (0 Bft) NO 45 13,2 C 22,5 C 0,0 km/h (0 Bft)
18.06.2012 21:10 21,2 C 59 % 0,0 l/m 0,0 km/h (0 Bft) N-NO 22 12,9 C 22,0 C 0,0 km/h (0 Bft)
18.06.2012 21:15 21,1 C 59 % 0,0 l/m 0,0 km/h (0 Bft) NO 45 12,8 C 21,5 C 0,0 km/h (0 Bft)
18.06.2012 21:20 21,1 C 59 % 0,0 l/m 0,3 km/h (0 Bft) NO 45 12,8 C 21,0 C 1,9 km/h (1 Bft)
18.06.2012 21:25 20,8 C 60 % 0,0 l/m 0,6 km/h (0 Bft) NO 45 12,7 C 20,7 C 2,4 km/h (1 Bft)
18.06.2012 21:30 20,7 C 61 % 0,0 l/m 1,1 km/h (1 Bft) N-NO 22 12,9 C 20,4 C 0,0 km/h (0 Bft)
18.06.2012 21:35 20,8 C 61 % 0,0 l/m 1,4 km/h (1 Bft) N-NO 22 13,0 C 20,3 C 1,6 km/h (1 Bft)
18.06.2012 21:40 20,4 C 63 % 0,0 l/m 1,4 km/h (1 Bft) N-NO 22 13,1 C 20,1 C 2,6 km/h (1 Bft)
18.06.2012 21:45 20,3 C 63 % 0,0 l/m 1,8 km/h (1 Bft) NO 45 13,0 C 20,0 C 3,5 km/h (1 Bft)
18.06.2012 21:50 20,1 C 64 % 0,0 l/m 1,6 km/h (1 Bft) NO 45 13,1 C 19,9 C 1,6 km/h (1 Bft)
18.06.2012 21:55 20,0 C 64 % 0,0 l/m 1,0 km/h (0 Bft) NO 45 13,0 C 19,7 C 1,8 km/h (1 Bft)
18.06.2012 22:00 20,0 C 65 % 0,0 l/m 0,8 km/h (0 Bft) N-NO 22 13,2 C 19,9 C 1,8 km/h (1 Bft)
18.06.2012 22:05 20,1 C 64 % 0,0 l/m 0,8 km/h (0 Bft) N-NW 337 13,1 C 20,0 C 0,0 km/h (0 Bft)
18.06.2012 22:10 19,9 C 65 % 0,0 l/m 0,3 km/h (0 Bft) N-NW 337 13,1 C 20,1 C 0,0 km/h (0 Bft)
18.06.2012 22:15 19,5 C 66 % 0,0 l/m 0,2 km/h (0 Bft) N 360 13,0 C 19,8 C 0,0 km/h (0 Bft)
18.06.2012 22:20 20,0 C 65 % 0,0 l/m 0,0 km/h (0 Bft) N 360 13,2 C 19,7 C 1,8 km/h (1 Bft)
18.06.2012 22:25 19,9 C 65 % 0,0 l/m 0,2 km/h (0 Bft) N-NO 22 13,1 C 19,7 C 0,0 km/h (0 Bft)
18.06.2012 22:30 20,0 C 65 % 0,0 l/m 0,5 km/h (0 Bft) NO 45 13,2 C 20,0 C 0,0 km/h (0 Bft)
18.06.2012 22:35 20,2 C 64 % 0,0 l/m 0,2 km/h (0 Bft) NO 45 13,2 C 20,1 C 0,0 km/h (0 Bft)
18.06.2012 22:40 20,3 C 63 % 0,0 l/m 0,0 km/h (0 Bft) N-NO 22 13,0 C 20,2 C 0,0 km/h (0 Bft)
18.06.2012 22:45 20,4 C 62 % 0,0 l/m 0,0 km/h (0 Bft) W-NW 292 12,9 C 20,1 C 0,0 km/h (0 Bft)
18.06.2012 22:50 19,8 C 64 % 0,0 l/m 0,0 km/h (0 Bft) NO 45 12,8 C 19,9 C 1,6 km/h (1 Bft)
18.06.2012 22:55 20,5 C 63 % 0,0 l/m 0,6 km/h (0 Bft) N-NO 22 13,2 C 20,1 C 2,6 km/h (1 Bft)
18.06.2012 23:00 20,3 C 64 % 0,0 l/m 0,8 km/h (0 Bft) NO 45 13,3 C 20,4 C 0,0 km/h (0 Bft)
18.06.2012 23:05 20,2 C 65 % 0,0 l/m 0,5 km/h (0 Bft) O 90 13,4 C 20,3 C 1,6 km/h (1 Bft)
18.06.2012 23:10 20,0 C 65 % 0,0 l/m 0,5 km/h (0 Bft) S-SW 202 13,2 C 20,2 C 1,6 km/h (1 Bft)
18.06.2012 23:15 19,7 C 66 % 0,0 l/m 0,6 km/h (0 Bft) NO 45 13,2 C 20,1 C 0,0 km/h (0 Bft)
18.06.2012 23:20 20,1 C 66 % 0,0 l/m 1,8 km/h (1 Bft) SO 135 13,5 C 20,2 C 7,7 km/h (2 Bft)
18.06.2012 23:25 20,2 C 66 % 0,0 l/m 2,9 km/h (1 Bft) NO 45 13,6 C 20,4 C 3,1 km/h (1 Bft)
18.06.2012 23:30 20,7 C 67 % 0,0 l/m 3,7 km/h (1 Bft) S 180 14,3 C 20,7 C 5,0 km/h (1 Bft)
18.06.2012 23:35 20,7 C 66 % 0,0 l/m 2,6 km/h (1 Bft) O-NO 67 14,1 C 20,8 C 0,0 km/h (0 Bft)
18.06.2012 23:40 20,4 C 66 % 0,0 l/m 2,9 km/h (1 Bft) O-SO 112 13,8 C 20,9 C 3,2 km/h (1 Bft)
18.06.2012 23:45 20,4 C 68 % 0,0 l/m 3,7 km/h (1 Bft) S-SO 157 14,3 C 20,9 C 7,2 km/h (2 Bft)
18.06.2012 23:50 20,4 C 68 % 0,0 l/m 4,7 km/h (1 Bft) W 270 14,3 C 20,7 C 1,9 km/h (1 Bft)
18.06.2012 23:55 19,9 C 71 % 0,0 l/m 5,0 km/h (1 Bft) O-NO 67 14,5 C 19,9 C 5,5 km/h (1 Bft)
_ Min-Zeit 05:15 12:35 - 22:50 - - 13:25 05:25 23:35
Minimum _ 10,5 C 20 % - 0,0 km/h (0 Bft) - - 6,8 C 10,3 C 0,0 km/h (0 Bft)
_ Max-Zeit 12:25 05:40 23:55 14:40 - - 08:50 10:10 14:00
Maximum _ 33,3 C 93 % 0,0 l/m 9,2 km/h
SO (2 Bft)
- - 17,9 C 34,6 C 20,3 km/h
W-SW (4 Bft)
Durchschnitt _ 23,1 C 55 % #0,0 l/m 2,3 km/h (1 Bft) SO - 11,7 C 24,7 C 3,3 km/h (1 Bft)